FW6870 Weather Reports


time (UTC)temp
C
wind
direction
speed
KPH
gust
KPH
rain 1hr
cm
rain 24hr
cm
rain mn
cm
humidity
%
barometer
mb
20260509000029 17 219 8.0 9.7 0.00 0.00 0.00 68 1014.9
20260508234532 17 219 6.4 8.0 0.00 0.00 0.00 69 1014.7
20260508233030 18 230 6.4 9.7 0.00 0.00 0.00 69 1014.8
20260508231530 18 229 4.8 8.0 0.00 0.00 0.00 69 1014.9
20260508230032 18 67 6.4 12.9 0.00 0.00 0.00 68 1014.9
20260508224531 18 219 6.4 12.9 0.00 0.00 0.00 68 1014.8
20260508223029 18 227 8.0 14.5 0.00 0.00 0.00 66 1014.7
20260508221529 18 219 6.4 11.3 0.00 0.00 0.00 65 1014.8
20260508220028 19 75 4.8 8.0 0.00 0.00 0.00 65 1014.8
20260508214530 19 75 3.2 11.3 0.00 0.00 0.00 63 1014.7
20260508213027 19 80 6.4 12.9 0.00 0.00 0.00 61 1014.6
20260508211529 19 72 4.8 14.5 0.00 0.00 0.00 61 1014.7
20260508210032 19 68 8.0 16.1 0.00 0.00 0.00 60 1015.0
20260508204530 19 72 6.4 14.5 0.00 0.00 0.00 61 1014.9
20260508203031 20 78 6.4 12.9 0.00 0.00 0.00 59 1014.9
20260508201530 19 74 6.4 14.5 0.00 0.00 0.00 60 1015.2
20260508200031 19 88 3.2 16.1 0.00 0.00 0.00 58 1015.3
20260508194526 19 76 3.2 16.1 0.00 0.00 0.00 59 1015.4
20260508193028 20 69 8.0 19.3 0.00 0.00 0.00 59 1015.9
20260508191528 20 78 4.8 12.9 0.00 0.00 0.00 57 1016.0
20260508190038 20 59 8.0 22.5 0.00 0.00 0.00 61 1016.1
20260508184527 20 67 8.0 16.1 0.00 0.00 0.00 58 1016.2
20260508183028 19 0 1.6 17.7 0.00 0.00 0.00 58 1016.5
20260508181528 18 157 3.2 16.1 0.00 0.00 0.00 58 1016.7
20260508180028 18 79 3.2 8.0 0.00 0.00 0.00 58 1017.0
20260508174544 19 165 8.0 16.1 0.00 0.00 0.00 56 1017.2
20260508173032 18 204 4.8 20.9 0.00 0.00 0.00 58 1017.3
20260508171528 18 195 9.7 16.1 0.00 0.00 0.00 59 1017.5
20260508170031 17 184 8.0 22.5 0.00 0.00 0.00 60 1017.7
20260508164527 17 142 4.8 19.3 0.00 0.00 0.00 59 1018.1
20260508163041 18 183 12.9 19.3 0.00 0.00 0.00 57 1018.2
20260508161529 17 183 4.8 17.7 0.00 0.00 0.00 61 1018.4
20260508160027 17 134 1.6 14.5 0.00 0.00 0.00 64 1018.3
20260508154528 17 171 4.8 20.9 0.00 0.00 0.00 64 1018.4
20260508153031 17 192 6.4 12.9 0.00 0.00 0.00 66 1018.7
20260508151535 16 186 4.8 12.9 0.00 0.00 0.00 62 1018.9
20260508150031 16 140 6.4 14.5 0.00 0.00 0.00 64 1018.8
20260508144534 16 96 4.8 14.5 0.00 0.00 0.00 70 1018.8
20260508143025 16 136 4.8 12.9 0.00 0.00 0.00 70 1018.7
20260508141528 15 111 9.7 14.5 0.00 0.00 0.00 70 1018.7
20260508140031 16 134 1.6 6.4 0.00 0.00 0.00 74 1018.9
20260508134534 15 129 4.8 9.7 0.00 0.05 0.00 73 1019.2
20260508133029 14 126 1.6 6.4 0.00 0.05 0.00 78 1019.1
20260508131526 13 123 0.0 4.8 0.00 0.05 0.00 83 1019.2
20260508130025 12 123 0.0 4.8 0.00 0.05 0.00 86 1018.9
20260508124525 12 0 1.6 8.0 0.00 0.30 0.00 88 1018.8
20260508123033 12 69 4.8 8.0 0.00 0.30 0.00 88 1018.5
20260508121528 11 0 0.0 6.4 0.00 0.30 0.00 88 1018.2
20260508120028 11 65 4.8 12.9 0.00 0.30 0.00 89 1018.0
20260508114527 10 82 8.0 14.5 0.00 0.61 0.00 89 1017.9
20260508113026 10 52 9.7 16.1 0.00 0.61 0.00 88 1017.5
20260508111526 10 58 9.7 16.1 0.00 0.61 0.00 87 1017.3
20260508110031 10 56 12.9 17.7 0.00 0.61 0.00 86 1016.8
20260508104528 11 61 11.3 19.3 0.00 0.84 0.00 85 1016.6
20260508103032 10 58 11.3 16.1 0.00 0.84 0.00 86 1016.4
20260508101535 11 58 9.7 19.3 0.00 0.84 0.00 84 1016.2
20260508100027 11 63 9.7 16.1 0.00 0.84 0.00 85 1015.9
20260508094529 11 60 9.7 14.5 0.00 0.94 0.00 84 1015.7
20260508093042 11 63 9.7 16.1 0.00 0.94 0.00 84 1015.7
20260508091526 10 66 6.4 16.1 0.00 0.94 0.00 86 1015.7
20260508090041 11 58 8.0 14.5 0.00 0.94 0.00 85 1015.5
20260508084528 11 42 12.9 16.1 0.00 1.09 0.00 80 1015.3
20260508083031 12 21 12.9 14.5 0.00 1.09 0.00 79 1015.2
20260508081527 11 5 9.7 14.5 0.00 1.09 0.00 81 1015.1
20260508080035 11 331 9.7 14.5 0.00 1.09 0.00 81 1015.2
20260508074535 12 330 8.0 12.9 0.00 1.60 0.00 81 1015.3
20260508073026 12 308 8.0 16.1 0.00 1.60 0.00 80 1015.3
20260508071528 12 317 9.7 16.1 0.00 1.60 0.00 80 1015.3
20260508070029 12 326 9.7 14.5 0.00 1.60 0.00 80 1015.3
20260508064526 12 322 11.3 16.1 0.00 1.80 0.00 80 1015.2
20260508063027 12 296 11.3 16.1 0.00 1.80 0.00 80 1015.1
20260508061529 13 310 9.7 14.5 0.00 1.80 0.00 81 1015.1
20260508060029 13 318 8.0 14.5 0.00 1.80 0.00 80 1015.2
20260508054527 13 309 9.7 12.9 0.00 2.41 0.00 80 1015.2
20260508053026 13 285 9.7 12.9 0.00 2.41 0.00 81 1015.3
20260508051527 13 293 8.0 12.9 0.00 2.41 0.00 82 1015.3
20260508050029 13 288 8.0 11.3 0.00 2.41 0.00 81 1015.3
20260508044530 13 309 6.4 12.9 0.00 2.95 0.00 80 1015.2
20260508043026 13 284 8.0 11.3 0.00 2.95 0.00 79 1015.0
20260508041534 13 294 6.4 11.3 0.00 2.95 0.00 80 1015.0
20260508040030 13 292 6.4 11.3 0.00 2.95 0.00 80 1014.8
20260508034528 14 298 6.4 11.3 0.00 2.97 2.95 79 1014.9
20260508033035 14 286 6.4 11.3 0.00 2.97 2.95 78 1014.7
20260508031526 15 282 8.0 12.9 0.00 2.97 2.95 76 1014.9
20260508030037 15 294 8.0 12.9 0.00 2.97 2.95 76 1014.7
20260508024528 15 309 8.0 12.9 0.00 2.97 2.95 75 1014.7
20260508023039 15 300 8.0 12.9 0.00 2.97 2.95 74 1014.4
20260508021533 15 313 6.4 16.1 0.00 2.97 2.95 74 1014.1
20260508020028 16 313 11.3 19.3 0.00 2.97 2.95 73 1014.1
20260508014533 16 320 11.3 17.7 0.00 3.17 2.95 72 1013.9
20260508013027 16 311 9.7 19.3 0.00 3.17 2.95 70 1013.7
20260508011527 16 327 9.7 16.1 0.00 3.17 2.95 70 1013.4
20260508010039 17 323 11.3 24.1 0.00 3.17 2.95 69 1013.2
20260508004531 17 355 14.5 22.5 0.00 5.89 2.95 69 1012.9
20260508003029 17 329 16.1 24.1 0.00 5.89 2.95 68 1012.7
20260508001534 17 318 11.3 22.5 0.00 5.89 2.95 68 1012.7